Time,TemperatureF,DewpointF,PressureIn,WindDirection,WindDirectionDegrees,WindSpeedMPH,WindSpeedGustMPH,Humidity,HourlyPrecipIn,Conditions,Clouds,dailyrainin,SoftwareType,DateUTC
2013-10-08 11:35:00,47.3,15.9,27.73,WSW,243,16.3,22.4,28,0.00,,---,0.00,VWS V12.07,2013-10-08 18:35:00,
2013-10-08 11:49:00,47.7,16.2,27.73,WSW,254,20.1,25.1,28,0.00,,,0.00,VWS V12.07,2013-10-08 18:49:00,
2013-10-08 11:59:00,47.1,16.5,27.73,West,265,15.0,27.5,29,0.00,,,0.00,VWS V12.07,2013-10-08 18:59:00,
2013-10-08 12:09:00,46.9,16.4,27.73,West,260,23.3,28.0,29,0.00,,,0.00,VWS V12.07,2013-10-08 19:09:00,
2013-10-08 12:19:00,47.3,17.5,27.73,West,268,17.9,30.2,30,0.00,,,0.00,VWS V12.07,2013-10-08 19:19:00,
2013-10-08 12:29:00,47.3,15.9,27.73,WNW,285,27.5,28.4,28,0.00,,,0.00,VWS V12.07,2013-10-08 19:29:00,
2013-10-08 12:39:00,48.4,16.0,27.73,WNW,301,17.4,17.4,27,0.00,,,0.00,VWS V12.07,2013-10-08 19:39:00,
2013-10-08 12:49:00,47.3,15.0,27.70,WSW,242,23.7,32.4,27,0.00,,,0.00,VWS V12.07,2013-10-08 19:49:00,
2013-10-08 12:59:00,46.0,15.6,27.70,SW,232,27.5,32.4,29,0.00,,,0.00,VWS V12.07,2013-10-08 19:59:00,
2013-10-08 13:59:00,45.7,19.6,27.70,West,262,15.4,19.7,35,0.00,,,0.00,VWS V12.07,2013-10-08 20:59:00,
2013-10-08 14:09:00,45.3,21.2,27.70,WSW,239,11.0,19.7,38,0.00,,,0.00,VWS V12.07,2013-10-08 21:09:00,
2013-10-08 14:19:00,45.3,19.3,27.70,WSW,258,14.1,22.8,35,0.00,,,0.00,VWS V12.07,2013-10-08 21:19:00,
2013-10-08 14:29:00,46.4,15.9,27.70,West,275,20.6,25.5,29,0.00,,,0.00,VWS V12.07,2013-10-08 21:29:00,
2013-10-08 14:39:00,49.6,17.0,27.70,WNW,286,19.7,25.5,27,0.00,,,0.00,VWS V12.07,2013-10-08 21:39:00,
2013-10-08 14:49:00,50.9,17.2,27.70,WNW,299,13.6,21.5,26,0.00,,,0.00,VWS V12.07,2013-10-08 21:49:00,
2013-10-08 14:59:00,45.9,16.2,27.70,West,281,15.0,15.0,30,0.00,,,0.00,VWS V12.07,2013-10-08 21:59:00,
2013-10-08 15:19:00,46.4,15.9,27.67,WSW,248,10.5,10.5,29,0.00,,,0.00,VWS V12.07,2013-10-08 22:19:00,
2013-10-08 15:29:00,45.7,17.5,27.67,WSW,255,12.3,17.0,32,0.00,,,0.00,VWS V12.07,2013-10-08 22:29:00,
2013-10-08 15:39:00,45.0,20.3,27.70,WSW,251,11.0,11.0,37,0.00,,,0.00,VWS V12.07,2013-10-08 22:39:00,
2013-10-08 15:49:00,45.3,21.8,27.70,SW,225,5.8,14.5,39,0.00,,,0.00,VWS V12.07,2013-10-08 22:49:00,
2013-10-08 15:59:00,46.9,17.9,27.70,West,277,8.1,8.1,31,0.00,,,0.00,VWS V12.07,2013-10-08 22:59:00,
2013-10-08 16:09:00,47.7,17.8,27.70,WSW,242,10.1,13.2,30,0.00,,,0.00,VWS V12.07,2013-10-08 23:09:00,
2013-10-08 16:19:00,48.7,16.3,27.70,West,277,10.1,15.9,27,0.00,,,0.00,VWS V12.07,2013-10-08 23:19:00,
2013-10-08 16:29:00,46.0,15.6,27.70,West,262,8.3,13.2,29,0.00,,,0.00,VWS V12.07,2013-10-08 23:29:00,
2013-10-08 16:39:00,48.9,16.4,27.70,West,271,10.1,10.1,27,0.00,,,0.00,VWS V12.07,2013-10-08 23:39:00,
2013-10-08 16:49:00,48.6,16.1,27.70,WSW,252,15.4,15.4,27,0.00,,,0.00,VWS V12.07,2013-10-08 23:49:00,
2013-10-08 16:59:00,49.1,16.6,27.70,WSW,257,11.0,18.3,27,0.00,,,0.00,VWS V12.07,2013-10-08 23:59:00,
2013-10-08 17:09:00,48.4,16.0,27.70,West,265,12.3,19.2,27,0.00,,,0.00,VWS V12.07,2013-10-09 00:09:00,
2013-10-08 17:19:00,46.4,15.9,27.70,West,265,13.6,19.2,29,0.00,,,0.00,VWS V12.07,2013-10-09 00:19:00,
2013-10-08 17:29:00,45.9,17.7,27.70,WSW,245,13.2,17.0,32,0.00,,,0.00,VWS V12.07,2013-10-09 00:29:00,
2013-10-08 17:39:00,48.2,16.6,27.70,West,261,12.8,12.8,28,0.00,,,0.00,VWS V12.07,2013-10-09 00:39:00,
2013-10-08 17:49:00,45.9,15.4,27.70,WSW,256,13.2,17.4,29,0.00,,,0.00,VWS V12.07,2013-10-09 00:49:00,
2013-10-08 17:59:00,45.5,15.1,27.70,West,262,13.6,19.2,29,0.00,,,0.00,VWS V12.07,2013-10-09 00:59:00,
2013-10-08 18:09:00,45.3,14.9,27.70,West,279,14.5,17.9,29,0.00,,,0.00,VWS V12.07,2013-10-09 01:09:00,
2013-10-08 18:19:00,45.1,15.6,27.70,West,272,10.5,10.5,30,0.00,,,0.00,VWS V12.07,2013-10-09 01:19:00,
2013-10-08 18:38:00,44.2,17.0,27.70,WSW,253,14.1,17.0,33,0.00,,,0.00,VWS V12.07,2013-10-09 01:38:00,
2013-10-08 18:48:00,43.7,19.1,27.70,West,264,10.5,14.1,37,0.00,,,0.00,VWS V12.07,2013-10-09 01:48:00,
2013-10-08 18:58:00,43.3,18.2,27.70,SW,229,13.2,14.1,36,0.00,,,0.00,VWS V12.07,2013-10-09 01:58:00,
2013-10-08 19:08:00,43.0,16.5,27.70,SW,222,8.7,13.2,34,0.00,,,0.00,VWS V12.07,2013-10-09 02:08:00,
2013-10-08 19:18:00,42.6,18.2,27.73,SW,222,5.4,13.2,37,0.00,,,0.00,VWS V12.07,2013-10-09 02:18:00,
2013-10-08 19:28:00,42.8,19.0,27.73,SW,235,6.3,8.1,38,0.00,,,0.00,VWS V12.07,2013-10-09 02:28:00,
2013-10-08 19:38:00,42.6,18.8,27.73,SW,230,8.7,8.7,38,0.00,,,0.00,VWS V12.07,2013-10-09 02:38:00,
2013-10-08 19:48:00,42.3,18.5,27.73,SW,226,8.1,11.4,38,0.00,,,0.00,VWS V12.07,2013-10-09 02:48:00,
2013-10-08 19:58:00,41.9,18.2,27.73,SW,227,6.3,11.4,38,0.00,,,0.00,VWS V12.07,2013-10-09 02:58:00,
2013-10-08 20:08:00,41.5,17.8,27.73,SW,215,5.4,8.1,38,0.00,,,0.00,VWS V12.07,2013-10-09 03:08:00,
2013-10-08 20:18:00,41.7,16.8,27.73,SSW,208,6.3,6.3,36,0.00,,,0.00,VWS V12.07,2013-10-09 03:18:00,
2013-10-08 20:28:00,41.7,16.1,27.73,SSW,213,6.7,8.3,35,0.00,,,0.00,VWS V12.07,2013-10-09 03:28:00,
2013-10-08 20:39:00,41.5,16.6,27.73,SW,217,6.3,8.3,36,0.00,,,0.00,VWS V12.07,2013-10-09 03:39:00,
2013-10-08 20:49:00,41.4,17.7,27.73,SW,214,8.1,10.5,38,0.00,,,0.00,VWS V12.07,2013-10-09 03:49:00,
2013-10-08 20:59:00,41.4,18.3,27.73,SSW,208,8.7,11.0,39,0.00,,,0.00,VWS V12.07,2013-10-09 03:59:00,
2013-10-08 21:09:00,41.5,18.4,27.73,SW,219,9.2,12.3,39,0.00,,,0.00,VWS V12.07,2013-10-09 04:09:00,
2013-10-08 21:19:00,41.5,18.4,27.73,SW,222,8.3,8.3,39,0.00,,,0.00,VWS V12.07,2013-10-09 04:19:00,
2013-10-08 21:29:00,41.5,17.8,27.73,SSW,206,6.7,8.3,38,0.00,,,0.00,VWS V12.07,2013-10-09 04:29:00,
2013-10-08 21:39:00,41.5,18.4,27.76,SW,220,8.1,10.5,39,0.00,,,0.00,VWS V12.07,2013-10-09 04:39:00,
2013-10-08 21:49:00,41.5,18.4,27.76,SW,214,6.3,8.3,39,0.00,,,0.00,VWS V12.07,2013-10-09 04:49:00,
2013-10-08 21:59:00,41.7,18.6,27.76,SW,222,6.3,8.3,39,0.00,,,0.00,VWS V12.07,2013-10-09 04:59:00,
2013-10-08 22:09:00,41.5,18.4,27.76,SSW,207,5.8,7.6,39,0.00,,,0.00,VWS V12.07,2013-10-09 05:09:00,
2013-10-08 22:19:00,40.8,17.2,27.76,SSW,194,5.4,7.6,38,0.00,,,0.00,VWS V12.07,2013-10-09 05:19:00,
2013-10-08 22:29:00,41.5,13.9,27.76,SSW,203,5.8,6.7,32,0.00,,,0.00,VWS V12.07,2013-10-09 05:29:00,
2013-10-08 22:39:00,41.2,15.6,27.76,SW,224,5.4,6.7,35,0.00,,,0.00,VWS V12.07,2013-10-09 05:39:00,
2013-10-08 22:49:00,40.8,17.2,27.76,SW,236,7.6,8.3,38,0.00,,,0.00,VWS V12.07,2013-10-09 05:49:00,
2013-10-08 22:59:00,40.5,19.2,27.76,SW,220,5.8,8.3,42,0.00,,,0.00,VWS V12.07,2013-10-09 05:59:00,
2013-10-08 23:09:00,40.1,17.1,27.76,SW,221,5.4,6.3,39,0.00,,,0.00,VWS V12.07,2013-10-09 06:09:00,
2013-10-08 23:19:00,40.5,15.6,27.76,SSW,207,5.8,8.1,36,0.00,,,0.00,VWS V12.07,2013-10-09 06:19:00,
2013-10-08 23:29:00,40.3,14.8,27.76,SSW,205,5.8,8.1,35,0.00,,,0.00,VWS V12.07,2013-10-09 06:29:00,
2013-10-08 23:39:00,40.3,14.8,27.76,SSW,201,5.8,8.1,35,0.00,,,0.00,VWS V12.07,2013-10-09 06:39:00,
2013-10-08 23:49:00,40.3,16.7,27.76,SW,235,5.4,7.2,38,0.00,,,0.00,VWS V12.07,2013-10-09 06:49:00,
2013-10-08 23:59:00,39.6,17.2,27.76,SW,233,5.4,7.2,40,0.00,,,0.00,VWS V12.07,2013-10-09 06:59:00,